NEE44E EDTF-EDTF

Flight info

Callsign NEE44E
Flight time 0h 28m
Altitude 6000
Route VFR
Aircraft C172/L-SFG/C

Departure

Time 2026-04-25 16:03
Airport Freiburg im Breisgau Airfield (EDTF)

Arrival

Time 2026-04-25 16:31
Airport Freiburg im Breisgau Airfield (EDTF)
Time Latitude Longitude Altitude Speed Heading
2026-04-25 15:54 48.02137 7.83494 803 ft 0 kts 253°
2026-04-25 15:55 48.02137 7.83495 802 ft 0 kts 253°
2026-04-25 15:56 48.02137 7.83494 803 ft 0 kts 253°
2026-04-25 15:58 48.02135 7.83482 803 ft 5 kts 257°
2026-04-25 15:58 48.02087 7.83493 803 ft 13 kts 159°
2026-04-25 15:59 48.01976 7.83552 805 ft 19 kts 162°
2026-04-25 15:59 48.01864 7.83616 815 ft 8 kts 160°
2026-04-25 15:59 48.01856 7.83619 815 ft 0 kts 163°
2026-04-25 16:01 48.01821 7.83615 816 ft 9 kts 206°
2026-04-25 16:01 48.01776 7.83550 825 ft 7 kts 260°
2026-04-25 16:02 48.01865 7.83478 812 ft 37 kts 339°
2026-04-25 16:02 48.02250 7.83270 827 ft 74 kts 340°
2026-04-25 16:02 48.02726 7.82983 1030 ft 76 kts 337°
2026-04-25 16:02 48.03264 7.82594 1172 ft 92 kts 335°
2026-04-25 16:03 48.03843 7.82169 1389 ft 92 kts 335°
2026-04-25 16:03 48.04414 7.81776 1592 ft 92 kts 337°
2026-04-25 16:03 48.04950 7.81177 1718 ft 99 kts 315°
2026-04-25 16:03 48.05394 7.80366 1851 ft 105 kts 313°
2026-04-25 16:04 48.05817 7.79528 2072 ft 101 kts 312°
2026-04-25 16:04 48.06235 7.78708 2322 ft 98 kts 310°
2026-04-25 16:04 48.06680 7.77950 2563 ft 96 kts 329°
2026-04-25 16:04 48.07263 7.77485 2829 ft 95 kts 334°
2026-04-25 16:05 48.07840 7.77062 3072 ft 90 kts 340°
2026-04-25 16:05 48.08404 7.76810 3307 ft 79 kts 341°
2026-04-25 16:05 48.09383 7.76374 3778 ft 66 kts 342°
2026-04-25 16:06 48.09810 7.76178 3985 ft 62 kts 345°
2026-04-25 16:06 48.10222 7.75996 4119 ft 66 kts 342°
2026-04-25 16:06 48.10657 7.75762 4266 ft 66 kts 325°
2026-04-25 16:06 48.11114 7.75210 4150 ft 99 kts 341°
2026-04-25 16:07 48.11813 7.74913 4139 ft 109 kts 342°
2026-04-25 16:07 48.12060 7.74796 4135 ft 112 kts 342°
2026-04-25 16:07 48.13321 7.74243 4134 ft 115 kts 342°
2026-04-25 16:07 48.14084 7.73905 4128 ft 113 kts 342°
2026-04-25 16:08 48.14823 7.73587 4136 ft 113 kts 345°
2026-04-25 16:08 48.15609 7.73524 4131 ft 113 kts 358°
2026-04-25 16:08 48.16396 7.73545 4137 ft 115 kts 359°
2026-04-25 16:08 48.17207 7.73564 4135 ft 118 kts 359°
2026-04-25 16:09 48.18019 7.73602 4131 ft 116 kts 360°
2026-04-25 16:09 48.18822 7.73629 4130 ft 115 kts 359°
2026-04-25 16:09 48.19638 7.73666 4135 ft 118 kts 359°
2026-04-25 16:09 48.20456 7.73700 4126 ft 119 kts 360°
2026-04-25 16:10 48.21270 7.73731 4126 ft 116 kts 359°
2026-04-25 16:10 48.22081 7.73765 4127 ft 118 kts 360°
2026-04-25 16:10 48.22899 7.73791 4128 ft 117 kts 359°
2026-04-25 16:10 48.23716 7.73820 4130 ft 118 kts 359°
2026-04-25 16:11 48.24532 7.73865 4135 ft 117 kts 360°
2026-04-25 16:11 48.25345 7.73909 4125 ft 116 kts
2026-04-25 16:11 48.26152 7.73942 4117 ft 116 kts
2026-04-25 16:11 48.26998 7.74082 3708 ft 124 kts 13°
2026-04-25 16:12 48.27774 7.74624 3392 ft 122 kts 25°
2026-04-25 16:12 48.28484 7.75308 3025 ft 122 kts 31°
2026-04-25 16:12 48.29155 7.76093 2647 ft 121 kts 34°
2026-04-25 16:12 48.29377 7.76354 2501 ft 120 kts 33°
2026-04-25 16:13 48.30542 7.77596 1604 ft 109 kts 34°
2026-04-25 16:13 48.31123 7.78136 1478 ft 91 kts 30°
2026-04-25 16:13 48.31647 7.78536 1347 ft 76 kts 26°
2026-04-25 16:13 48.32069 7.78877 1213 ft 61 kts 29°
2026-04-25 16:14 48.32457 7.79163 1040 ft 64 kts 22°
2026-04-25 16:14 48.32858 7.79458 998 ft 65 kts 28°
2026-04-25 16:14 48.33239 7.79813 931 ft 69 kts 31°
2026-04-25 16:14 48.33676 7.80156 944 ft 71 kts 27°
2026-04-25 16:15 48.34125 7.80516 889 ft 74 kts 32°
2026-04-25 16:15 48.34580 7.80858 855 ft 74 kts 27°
2026-04-25 16:15 48.35030 7.81220 741 ft 71 kts 31°
2026-04-25 16:15 48.35441 7.81561 606 ft 65 kts 32°
2026-04-25 16:16 48.35825 7.81881 524 ft 60 kts 31°
2026-04-25 16:16 48.36165 7.82163 514 ft 63 kts 28°
2026-04-25 16:16 48.36595 7.82467 683 ft 73 kts 27°
2026-04-25 16:16 48.36761 7.83069 939 ft 77 kts 116°
2026-04-25 16:17 48.36209 7.83272 1083 ft 100 kts 187°
2026-04-25 16:17 48.35486 7.83132 1267 ft 105 kts 179°
2026-04-25 16:17 48.34743 7.83088 1496 ft 110 kts 183°
2026-04-25 16:17 48.33970 7.82998 1664 ft 114 kts 183°
2026-04-25 16:18 48.33148 7.82938 1731 ft 125 kts 182°
2026-04-25 16:18 48.32862 7.82927 1740 ft 129 kts 181°
2026-04-25 16:18 48.31327 7.82808 1728 ft 135 kts 182°
2026-04-25 16:18 48.30409 7.82737 1731 ft 134 kts 182°
2026-04-25 16:19 48.29480 7.82668 1722 ft 131 kts 183°
2026-04-25 16:19 48.28568 7.82609 1738 ft 133 kts 183°
2026-04-25 16:19 48.27626 7.82535 1730 ft 136 kts 182°
2026-04-25 16:20 48.26050 7.82944 1967 ft 101 kts 77°
2026-04-25 16:20 48.26020 7.84121 1572 ft 128 kts 96°
2026-04-25 16:20 48.26285 7.86276 1676 ft 90 kts 54°
2026-04-25 16:21 48.26656 7.86993 1541 ft 88 kts 22°
2026-04-25 16:21 48.27086 7.86526 1345 ft 74 kts 295°
2026-04-25 16:21 48.27228 7.85727 903 ft 83 kts 279°
2026-04-25 16:21 48.27141 7.84885 648 ft 79 kts 257°
2026-04-25 16:22 48.27004 7.84193 639 ft 69 kts 258°
2026-04-25 16:22 48.26790 7.83475 722 ft 83 kts 240°
2026-04-25 16:22 48.26394 7.82851 950 ft 88 kts 221°
2026-04-25 16:22 48.25850 7.82356 1144 ft 93 kts 202°
2026-04-25 16:23 48.25267 7.82059 1428 ft 90 kts 201°
2026-04-25 16:23 48.24629 7.81767 1616 ft 102 kts 193°
2026-04-25 16:23 48.23882 7.81512 1703 ft 117 kts 194°
2026-04-25 16:23 48.23072 7.81219 1736 ft 122 kts 194°
2026-04-25 16:24 48.22234 7.80917 1735 ft 126 kts 194°
2026-04-25 16:24 48.21363 7.80616 1739 ft 132 kts 195°
2026-04-25 16:24 48.20476 7.80318 1726 ft 130 kts 193°
2026-04-25 16:24 48.19592 7.80003 1723 ft 129 kts 192°
2026-04-25 16:25 48.18725 7.79679 1738 ft 132 kts 194°
2026-04-25 16:25 48.18423 7.79573 1732 ft 133 kts 192°
2026-04-25 16:25 48.16927 7.79019 1739 ft 135 kts 194°
2026-04-25 16:25 48.16019 7.78693 1738 ft 134 kts 195°
2026-04-25 16:26 48.15102 7.78512 1719 ft 132 kts 175°
2026-04-25 16:26 48.14186 7.78665 1733 ft 134 kts 174°
2026-04-25 16:26 48.13268 7.78826 1727 ft 134 kts 172°
2026-04-25 16:26 48.12340 7.78982 1720 ft 134 kts 174°
2026-04-25 16:27 48.11443 7.79159 1720 ft 131 kts 173°
2026-04-25 16:27 48.10538 7.79319 1715 ft 124 kts 174°
2026-04-25 16:27 48.09749 7.79463 1700 ft 105 kts 174°
2026-04-25 16:27 48.09071 7.79595 1708 ft 95 kts 173°
2026-04-25 16:28 48.08427 7.79692 1698 ft 88 kts 172°
2026-04-25 16:28 48.07861 7.79872 1652 ft 86 kts 162°
2026-04-25 16:28 48.07498 7.80078 1656 ft 81 kts 153°
2026-04-25 16:28 48.07009 7.80404 1594 ft 74 kts 155°
2026-04-25 16:29 48.06545 7.80752 1434 ft 77 kts 152°
2026-04-25 16:29 48.05890 7.81282 1429 ft 83 kts 150°
2026-04-25 16:29 48.05456 7.81745 1481 ft 82 kts 154°
2026-04-25 16:29 48.04864 7.81979 1301 ft 90 kts 165°
2026-04-25 16:30 48.04278 7.82200 1096 ft 84 kts 160°
2026-04-25 16:30 48.03744 7.82486 1005 ft 81 kts 159°
2026-04-25 16:30 48.03398 7.82666 944 ft 79 kts 161°
2026-04-25 16:30 48.02884 7.82932 840 ft 76 kts 159°
2026-04-25 16:31 48.02408 7.83181 803 ft 60 kts 161°
2026-04-25 16:31 48.02239 7.83387 806 ft 14 kts 60°
2026-04-25 16:31 48.02239 7.83493 805 ft 11 kts 162°
2026-04-25 16:31 48.02180 7.83541 805 ft 10 kts 175°
2026-04-25 16:32 48.02165 7.83514 806 ft 2 kts 262°
2026-04-25 16:32 48.02161 7.83487 803 ft 0 kts 249°